,,,PA_Meas_PMT16A,,PR_Meas_QMR101_102,,RH_Meas_QMH101,,SR_Meas_QMS101,,TA_Meas_QMH101,,GenWind,,GenWind,
date,time,status,PA,status,PR,status,RH,status,SR,status,TA,status,DirAvg,status,SpdAvg,
2009-11-15, 00:00:04,VALID,998.633,VALID,0,VALID,93.2034,VALID,0,VALID,23.7402,VALID,14,VALID,0.522656,
2009-11-15, 00:01:04,VALID,998.633,VALID,0,VALID,93.1958,VALID,0,VALID,23.7616,VALID,14,VALID,0.507422,
2009-11-15, 00:02:04,VALID,998.686,VALID,0,VALID,93.2111,VALID,0,VALID,23.7597,VALID,14,VALID,0.315625,
2009-11-15, 00:03:04,VALID,998.672,VALID,0,VALID,93.2263,VALID,0,VALID,23.7793,VALID,14,VALID,0.0835937,
2009-11-15, 00:04:04,VALID,998.682,VALID,0,VALID,93.2111,VALID,0,VALID,23.8006,VALID,14,VALID,0,
2009-11-15, 00:05:04,VALID,998.708,VALID,0,VALID,93.2187,VALID,0,VALID,23.7988,VALID,14,VALID,0,
2009-11-15, 00:06:04,VALID,998.734,VALID,0,VALID,93.2263,VALID,0,VALID,23.8183,VALID,14,VALID,0,
2009-11-15, 00:07:04,VALID,998.757,VALID,0,VALID,93.2263,VALID,0,VALID,23.8591,VALID,14,VALID,0.213672,
2009-11-15, 00:08:04,VALID,998.773,VALID,0,VALID,93.1729,VALID,0,VALID,23.8378,VALID,14,VALID,0.334375,
2009-11-15, 00:09:04,VALID,998.783,VALID,0,VALID,93.1653,VALID,0,VALID,23.8786,VALID,14,VALID,0.146484,
2009-11-15, 00:10:04,VALID,998.75,VALID,0,VALID,93.1729,VALID,0,VALID,23.9177,VALID,14,VALID,0.0140625,
2009-11-15, 00:11:04,VALID,998.742,VALID,0,VALID,93.15,VALID,0,VALID,23.8963,VALID,14,VALID,0,
2009-11-15, 00:12:04,VALID,998.738,VALID,0,VALID,93.1958,VALID,0,VALID,23.9354,VALID,33,VALID,0.667188,
2009-11-15, 00:13:04,VALID,998.687,VALID,0,VALID,93.1348,VALID,0,VALID,23.9762,VALID,58,VALID,0.951953,
2009-11-15, 00:14:04,VALID,998.69,VALID,0,VALID,93.0356,VALID,0,VALID,23.9567,VALID,62,VALID,1.05234,
2009-11-15, 00:15:04,VALID,998.636,VALID,0,VALID,92.9135,VALID,0,VALID,23.9567,VALID,61,VALID,0.915625,
2009-11-15, 00:16:04,VALID,998.652,VALID,0,VALID,92.8677,VALID,0,VALID,23.9567,VALID,62,VALID,0.890234,
2009-11-15, 00:17:04,VALID,998.654,VALID,0,VALID,92.8296,VALID,0,VALID,23.9762,VALID,63,VALID,0.905469,
2009-11-15, 00:18:04,VALID,998.631,VALID,0,VALID,92.7914,VALID,0,VALID,23.9762,VALID,58,VALID,0.799609,
2009-11-15, 00:19:04,VALID,998.59,VALID,0,VALID,92.7457,VALID,0,VALID,23.9744,VALID,58,VALID,0.863672,
2009-11-15, 00:20:04,VALID,998.585,VALID,0,VALID,92.7075,VALID,0,VALID,23.9939,VALID,58,VALID,0.68125,
2009-11-15, 00:21:04,VALID,998.537,VALID,0,VALID,92.7151,VALID,0,VALID,23.9939,VALID,58,VALID,0.569141,
2009-11-15, 00:22:05,VALID,998.502,VALID,0,VALID,92.7151,VALID,0,VALID,24.0153,VALID,58,VALID,0.404687,
2009-11-15, 00:23:05,VALID,998.507,VALID,0,VALID,92.677,VALID,0,VALID,24.0134,VALID,55,VALID,0.500781,
2009-11-15, 00:24:05,VALID,998.451,VALID,0,VALID,92.677,VALID,0,VALID,24.0543,VALID,45,VALID,0.452344,
2009-11-15, 00:25:05,VALID,998.412,VALID,0,VALID,92.6846,VALID,0,VALID,24.0134,VALID,43,VALID,0.402344,
2009-11-15, 00:26:05,VALID,998.345,VALID,0,VALID,92.6541,VALID,0,VALID,24.0329,VALID,31,VALID,0.530078,
2009-11-15, 00:27:05,VALID,998.328,VALID,0,VALID,92.6465,VALID,0,VALID,24.0525,VALID,22,VALID,0.444141,
2009-11-15, 00:28:05,VALID,998.313,VALID,0,VALID,92.6388,VALID,0,VALID,24.0525,VALID,22,VALID,0.342969,
2009-11-15, 00:29:05,VALID,998.316,VALID,0,VALID,92.6312,VALID,0,VALID,24.0738,VALID,31,VALID,0.641406,
2009-11-15, 00:30:05,VALID,998.295,VALID,0,VALID,92.6083,VALID,0,VALID,24.072,VALID,32,VALID,0.544141,
2009-11-15, 00:31:05,VALID,998.263,VALID,0,VALID,92.5778,VALID,0,VALID,24.0915,VALID,47,VALID,0.766406,
2009-11-15, 00:32:05,VALID,998.282,VALID,0,VALID,92.5015,VALID,0,VALID,24.0915,VALID,65,VALID,1.09141,
2009-11-15, 00:33:05,VALID,998.28,VALID,0,VALID,92.41,VALID,0,VALID,24.1519,VALID,89,VALID,0.916406,
2009-11-15, 00:34:05,VALID,998.307,VALID,0,VALID,92.326,VALID,0,VALID,24.1305,VALID,103,VALID,0.674609,
2009-11-15, 00:35:05,VALID,998.359,VALID,0,VALID,92.2497,VALID,0,VALID,24.1305,VALID,104,VALID,0.778906,
2009-11-15, 00:36:05,VALID,998.328,VALID,0,VALID,92.2345,VALID,0,VALID,24.1305,VALID,100,VALID,0.850781,
2009-11-15, 00:37:05,VALID,998.333,VALID,0,VALID,92.2421,VALID,0,VALID,24.1305,VALID,99,VALID,0.526172,
2009-11-15, 00:38:05,VALID,998.383,VALID,0,VALID,92.2497,VALID,0,VALID,24.1305,VALID,99,VALID,0.506641,
2009-11-15, 00:39:05,VALID,998.377,VALID,0,VALID,92.3031,VALID,0,VALID,24.1305,VALID,99,VALID,0,
2009-11-15, 00:40:05,VALID,998.397,VALID,0,VALID,92.2574,VALID,0,VALID,24.1714,VALID,99,VALID,0,
2009-11-15, 00:41:05,VALID,998.377,VALID,0,VALID,92.2574,VALID,0,VALID,24.15,VALID,99,VALID,0,
2009-11-15, 00:42:05,VALID,998.395,VALID,0,VALID,92.2574,VALID,0,VALID,24.1714,VALID,99,VALID,0,
2009-11-15, 00:43:05,VALID,998.411,VALID,0,VALID,92.2497,VALID,0,VALID,24.1714,VALID,99,VALID,0,
2009-11-15, 00:44:05,VALID,998.415,VALID,0,VALID,92.2421,VALID,0,VALID,24.15,VALID,99,VALID,0,
2009-11-15, 00:45:05,VALID,998.393,VALID,0,VALID,92.1811,VALID,0,VALID,24.1677,VALID,29,VALID,0.392969,
2009-11-15, 00:46:05,VALID,998.374,VALID,0,VALID,92.1353,VALID,0,VALID,24.1677,VALID,25,VALID,0.338672,
2009-11-15, 00:47:05,VALID,998.362,VALID,0,VALID,92.1124,VALID,0,VALID,24.1872,VALID,25,VALID,0,
2009-11-15, 00:48:05,VALID,998.322,VALID,0,VALID,92.12,VALID,0.112286,VALID,24.1872,VALID,25,VALID,0,
2009-11-15, 00:49:05,VALID,998.292,VALID,0,VALID,92.0895,VALID,0.112286,VALID,24.1872,VALID,25,VALID,0,
2009-11-15, 00:50:05,VALID,998.242,VALID,0,VALID,92.1048,VALID,0,VALID,24.1872,VALID,25,VALID,0,
2009-11-15, 00:51:05,VALID,998.225,VALID,0,VALID,92.0895,VALID,0.112286,VALID,24.1872,VALID,25,VALID,0.193359,
2009-11-15, 00:52:05,VALID,998.194,VALID,0,VALID,92.0819,VALID,0.112286,VALID,24.2086,VALID,25,VALID,0.254297,
2009-11-15, 00:53:05,VALID,998.184,VALID,0,VALID,92.059,VALID,0,VALID,24.2067,VALID,25,VALID,0.251953,
2009-11-15, 00:54:05,VALID,998.182,VALID,0,VALID,92.0743,VALID,0,VALID,24.2067,VALID,25,VALID,0,
2009-11-15, 00:55:05,VALID,998.153,VALID,0,VALID,92.0514,VALID,0,VALID,24.2263,VALID,25,VALID,0,
2009-11-15, 00:56:05,VALID,998.137,VALID,0,VALID,92.0514,VALID,0,VALID,24.2263,VALID,25,VALID,0.540625,
2009-11-15, 00:57:05,VALID,998.145,VALID,0,VALID,92.0056,VALID,0.112286,VALID,24.2263,VALID,25,VALID,0.559766,
2009-11-15, 00:58:05,VALID,998.1,VALID,0,VALID,91.9827,VALID,0,VALID,24.2476,VALID,25,VALID,0.407031,
2009-11-15, 00:59:05,VALID,998.105,VALID,0,VALID,91.998,VALID,0,VALID,24.2476,VALID,25,VALID,0.285937,
2009-11-15, 01:00:05,VALID,998.107,VALID,0,VALID,92.0132,VALID,0,VALID,24.2476,VALID,25,VALID,0.410547,
2009-11-15, 01:01:05,VALID,998.123,VALID,0,VALID,92.0132,VALID,0,VALID,24.2476,VALID,25,VALID,0.471094,
2009-11-15, 01:02:05,VALID,998.125,VALID,0,VALID,92.0056,VALID,0,VALID,24.2671,VALID,51,VALID,0.639453,
2009-11-15, 01:03:05,VALID,998.155,VALID,0,VALID,91.9293,VALID,0,VALID,24.2866,VALID,51,VALID,0.61875,
2009-11-15, 01:04:05,VALID,998.142,VALID,0,VALID,91.8988,VALID,0,VALID,24.3062,VALID,53,VALID,0.698047,
2009-11-15, 01:05:05,VALID,998.133,VALID,0,VALID,91.8301,VALID,0,VALID,24.3257,VALID,53,VALID,0.577734,
2009-11-15, 01:06:05,VALID,998.116,VALID,0,VALID,91.7691,VALID,0,VALID,24.3647,VALID,53,VALID,0.458594,
2009-11-15, 01:07:05,VALID,998.124,VALID,0,VALID,91.7538,VALID,0,VALID,24.3647,VALID,53,VALID,0.438281,
2009-11-15, 01:08:05,VALID,998.113,VALID,0,VALID,91.7309,VALID,0,VALID,24.4251,VALID,54,VALID,0.525391,
2009-11-15, 01:09:05,VALID,998.131,VALID,0,VALID,91.6851,VALID,0,VALID,24.4233,VALID,93,VALID,0.695313,
2009-11-15, 01:10:05,VALID,998.152,VALID,0,VALID,91.6317,VALID,0,VALID,24.4642,VALID,99,VALID,0.661719,
2009-11-15, 01:11:05,VALID,998.152,VALID,0,VALID,91.6165,VALID,0,VALID,24.4837,VALID,99,VALID,0.432422,
2009-11-15, 01:12:05,VALID,998.151,VALID,0,VALID,91.6394,VALID,0,VALID,24.4623,VALID,100,VALID,0.390234,
2009-11-15, 01:13:05,VALID,998.156,VALID,0,VALID,91.6546,VALID,0,VALID,24.4623,VALID,100,VALID,0.369531,
2009-11-15, 01:14:05,VALID,998.135,VALID,0,VALID,91.6775,VALID,0,VALID,24.5032,VALID,151,VALID,0.391797,
2009-11-15, 01:15:05,VALID,998.095,VALID,0,VALID,91.6851,VALID,0,VALID,24.5013,VALID,175,VALID,0.420703,
2009-11-15, 01:16:05,VALID,998.066,VALID,0,VALID,91.7385,VALID,0,VALID,24.48,VALID,175,VALID,0.256641,
2009-11-15, 01:17:05,VALID,998.043,VALID,0,VALID,91.6623,VALID,0,VALID,24.5013,VALID,175,VALID,0.242578,
2009-11-15, 01:18:05,VALID,998.063,VALID,0,VALID,91.5554,VALID,0,VALID,24.5209,VALID,175,VALID,0,
2009-11-15, 01:19:05,VALID,998.069,VALID,0,VALID,91.586,VALID,0,VALID,24.5404,VALID,175,VALID,0,
2009-11-15, 01:20:05,VALID,998.078,VALID,0,VALID,91.5707,VALID,0,VALID,24.519,VALID,175,VALID,0,
2009-11-15, 01:21:05,VALID,998.126,VALID,0,VALID,91.5097,VALID,0,VALID,24.5404,VALID,175,VALID,0,
2009-11-15, 01:22:05,VALID,998.149,VALID,0,VALID,91.4028,VALID,0,VALID,24.5404,VALID,201,VALID,0,
2009-11-15, 01:23:05,VALID,998.146,VALID,0,VALID,91.3266,VALID,0,VALID,24.5599,VALID,201,VALID,0,
2009-11-15, 01:24:05,VALID,998.134,VALID,0,VALID,91.3037,VALID,0,VALID,24.5599,VALID,201,VALID,0,
2009-11-15, 01:25:05,VALID,998.151,VALID,0,VALID,91.3113,VALID,0.112286,VALID,24.5599,VALID,201,VALID,0,
2009-11-15, 01:26:05,VALID,998.12,VALID,0,VALID,91.2274,VALID,0,VALID,24.5599,VALID,201,VALID,0,
2009-11-15, 01:27:05,VALID,998.087,VALID,0,VALID,91.174,VALID,0,VALID,24.5599,VALID,201,VALID,0,
2009-11-15, 01:28:05,VALID,998.043,VALID,0,VALID,91.1358,VALID,0,VALID,24.5599,VALID,196,VALID,0,
2009-11-15, 01:29:05,VALID,997.969,VALID,0,VALID,91.1358,VALID,0,VALID,24.558,VALID,186,VALID,0,
2009-11-15, 01:30:05,VALID,997.917,VALID,0,VALID,91.1129,VALID,0,VALID,24.5599,VALID,186,VALID,0,
2009-11-15, 01:31:05,VALID,997.906,VALID,0,VALID,91.1511,VALID,0,VALID,24.5599,VALID,186,VALID,0,
2009-11-15, 01:32:05,VALID,997.897,VALID,0,VALID,91.1892,VALID,0,VALID,24.5404,VALID,186,VALID,0,
2009-11-15, 01:33:05,VALID,997.88,VALID,0,VALID,91.2274,VALID,0,VALID,24.519,VALID,186,VALID,0,
2009-11-15, 01:34:05,VALID,997.881,VALID,0,VALID,91.2426,VALID,0,VALID,24.5209,VALID,186,VALID,0,
2009-11-15, 01:35:05,VALID,997.87,VALID,0,VALID,91.3037,VALID,0,VALID,24.4995,VALID,177,VALID,0,
2009-11-15, 01:36:05,VALID,997.875,VALID,0,VALID,91.2884,VALID,0,VALID,24.519,VALID,127,VALID,0.0335938,
2009-11-15, 01:37:05,VALID,997.863,VALID,0,VALID,91.3037,VALID,0,VALID,24.519,VALID,116,VALID,0.866797,
2009-11-15, 01:38:05,VALID,997.869,VALID,0,VALID,91.3723,VALID,0.112286,VALID,24.5385,VALID,107,VALID,0.844141,
2009-11-15, 01:39:05,VALID,997.883,VALID,0,VALID,91.3647,VALID,0,VALID,24.5404,VALID,101,VALID,0.950781,
2009-11-15, 01:40:05,VALID,997.884,VALID,0,VALID,91.4563,VALID,0.112286,VALID,24.5385,VALID,99,VALID,0.890234,
2009-11-15, 01:41:05,VALID,997.914,VALID,0,VALID,91.5707,VALID,0,VALID,24.5385,VALID,88,VALID,1.12109,
2009-11-15, 01:42:05,VALID,997.941,VALID,0,VALID,91.7233,VALID,0,VALID,24.5599,VALID,84,VALID,1.2,
2009-11-15, 01:43:05,VALID,997.955,VALID,0,VALID,91.853,VALID,0,VALID,24.5385,VALID,81,VALID,0.991016,
2009-11-15, 01:44:05,VALID,997.965,VALID,0,VALID,91.9522,VALID,0,VALID,24.519,VALID,87,VALID,0.89375,
2009-11-15, 01:45:05,VALID,997.963,VALID,0,VALID,91.9674,VALID,0,VALID,24.519,VALID,93,VALID,1.07539,
2009-11-15, 01:46:05,VALID,997.975,VALID,0,VALID,92.0132,VALID,0,VALID,24.519,VALID,93,VALID,0.783984,
2009-11-15, 01:47:05,VALID,997.975,VALID,0,VALID,91.9445,VALID,0.112286,VALID,24.4995,VALID,92,VALID,0.889063,
2009-11-15, 01:48:05,VALID,997.962,VALID,0,VALID,91.8988,VALID,0,VALID,24.4995,VALID,91,VALID,0.758203,
2009-11-15, 01:49:05,VALID,998.008,VALID,0,VALID,91.8377,VALID,0,VALID,24.5209,VALID,91,VALID,0.739453,
2009-11-15, 01:50:05,VALID,997.999,VALID,0,VALID,91.7691,VALID,0,VALID,24.4995,VALID,90,VALID,0.694141,
2009-11-15, 01:51:05,VALID,997.984,VALID,0,VALID,91.8148,VALID,0.112286,VALID,24.4995,VALID,87,VALID,0.647656,
2009-11-15, 01:52:05,VALID,997.99,VALID,0,VALID,91.853,VALID,0,VALID,24.519,VALID,71,VALID,0.661719,
2009-11-15, 01:53:05,VALID,998.004,VALID,0,VALID,91.9293,VALID,0,VALID,24.5385,VALID,71,VALID,0.558203,
2009-11-15, 01:54:05,VALID,997.971,VALID,0,VALID,91.9293,VALID,0.112286,VALID,24.5385,VALID,71,VALID,0.689062,
2009-11-15, 01:55:05,VALID,997.943,VALID,0,VALID,91.8835,VALID,0,VALID,24.519,VALID,71,VALID,0.879297,
2009-11-15, 01:56:05,VALID,997.919,VALID,0,VALID,91.8377,VALID,0,VALID,24.519,VALID,79,VALID,0.892969,
2009-11-15, 01:57:05,VALID,997.933,VALID,0,VALID,91.8835,VALID,0,VALID,24.519,VALID,84,VALID,0.791406,
2009-11-15, 01:58:05,VALID,997.892,VALID,0,VALID,91.8225,VALID,0,VALID,24.5404,VALID,89,VALID,0.983203,
2009-11-15, 01:59:05,VALID,997.853,VALID,0,VALID,91.792,VALID,0,VALID,24.5209,VALID,98,VALID,1.04883,
2009-11-15, 02:00:05,VALID,997.86,VALID,0,VALID,91.8148,VALID,0,VALID,24.5404,VALID,101,VALID,1.06758,
2009-11-15, 02:01:05,VALID,997.801,VALID,0,VALID,91.8377,VALID,0,VALID,24.4976,VALID,101,VALID,0.908594,
2009-11-15, 02:02:05,VALID,997.798,VALID,0,VALID,91.9064,VALID,0,VALID,24.5404,VALID,101,VALID,0.805469,
2009-11-15, 02:03:05,VALID,997.786,VALID,0,VALID,91.9751,VALID,0,VALID,24.5404,VALID,100,VALID,0.834375,
2009-11-15, 02:04:05,VALID,997.747,VALID,0,VALID,92.0056,VALID,0,VALID,24.519,VALID,100,VALID,0.891797,
2009-11-15, 02:05:05,VALID,997.742,VALID,0,VALID,92.0437,VALID,0,VALID,24.519,VALID,93,VALID,0.900781,
2009-11-15, 02:06:05,VALID,997.708,VALID,0,VALID,92.1124,VALID,0,VALID,24.5404,VALID,96,VALID,0.792969,
2009-11-15, 02:07:05,VALID,997.709,VALID,0,VALID,92.1353,VALID,0,VALID,24.519,VALID,94,VALID,0.822656,
2009-11-15, 02:08:05,VALID,997.684,VALID,0,VALID,92.1124,VALID,0,VALID,24.4995,VALID,94,VALID,0.883203,
2009-11-15, 02:09:05,VALID,997.67,VALID,0,VALID,92.2116,VALID,0,VALID,24.4995,VALID,94,VALID,0.747266,
2009-11-15, 02:10:05,VALID,997.614,VALID,0,VALID,92.2574,VALID,0,VALID,24.519,VALID,94,VALID,0.751172,
2009-11-15, 02:11:05,VALID,997.633,VALID,0,VALID,92.3413,VALID,0,VALID,24.5404,VALID,87,VALID,0.745703,
2009-11-15, 02:12:05,VALID,997.599,VALID,0,VALID,92.326,VALID,0,VALID,24.5404,VALID,87,VALID,1.01914,
2009-11-15, 02:13:05,VALID,997.585,VALID,0,VALID,92.3337,VALID,0,VALID,24.519,VALID,85,VALID,0.900391,
2009-11-15, 02:14:05,VALID,997.581,VALID,0,VALID,92.326,VALID,0,VALID,24.5209,VALID,83,VALID,1.06211,
2009-11-15, 02:15:05,VALID,997.591,VALID,0,VALID,92.3642,VALID,0,VALID,24.5209,VALID,78,VALID,0.878516,
2009-11-15, 02:16:05,VALID,997.557,VALID,0,VALID,92.4328,VALID,0,VALID,24.5209,VALID,62,VALID,1.03477,
2009-11-15, 02:17:05,VALID,997.571,VALID,0,VALID,92.4557,VALID,0,VALID,24.5013,VALID,63,VALID,1.04844,
2009-11-15, 02:18:05,VALID,997.548,VALID,0,VALID,92.4328,VALID,0,VALID,24.5209,VALID,57,VALID,1.18125,
2009-11-15, 02:19:05,VALID,997.565,VALID,0,VALID,92.4252,VALID,0,VALID,24.5013,VALID,56,VALID,1.00273,
2009-11-15, 02:20:05,VALID,997.525,VALID,0,VALID,92.532,VALID,0,VALID,24.5209,VALID,42,VALID,0.653125,
2009-11-15, 02:21:05,VALID,997.547,VALID,0,VALID,92.5931,VALID,0,VALID,24.5209,VALID,29,VALID,0.696094,
2009-11-15, 02:22:05,VALID,997.548,VALID,0,VALID,92.5626,VALID,0,VALID,24.5013,VALID,17,VALID,0.917578,
2009-11-15, 02:23:05,VALID,997.513,VALID,0,VALID,92.5244,VALID,0,VALID,24.5013,VALID,8,VALID,1.4332,
2009-11-15, 02:24:05,VALID,997.5,VALID,0,VALID,92.5015,VALID,0,VALID,24.5013,VALID,9,VALID,1.42305,
2009-11-15, 02:25:05,VALID,997.519,VALID,0,VALID,92.5549,VALID,0,VALID,24.5013,VALID,7,VALID,1.13086,
2009-11-15, 02:26:05,VALID,997.555,VALID,0,VALID,92.5397,VALID,0,VALID,24.4818,VALID,15,VALID,1.39453,
2009-11-15, 02:27:05,VALID,997.56,VALID,0,VALID,92.5397,VALID,0,VALID,24.4818,VALID,17,VALID,1.52656,
2009-11-15, 02:28:05,VALID,997.562,VALID,0,VALID,92.471,VALID,0,VALID,24.4604,VALID,19,VALID,1.67383,
2009-11-15, 02:29:05,VALID,997.569,VALID,0,VALID,92.471,VALID,0,VALID,24.4818,VALID,18,VALID,1.31406,
2009-11-15, 02:30:05,VALID,997.569,VALID,0,VALID,92.471,VALID,0,VALID,24.4623,VALID,26,VALID,1.41172,
2009-11-15, 02:31:05,VALID,997.576,VALID,0.5,VALID,92.4405,VALID,0,VALID,24.4428,VALID,26,VALID,1.59336,
2009-11-15, 02:32:05,VALID,997.602,VALID,0,VALID,92.5091,VALID,0,VALID,24.4214,VALID,24,VALID,1.60469,
2009-11-15, 02:33:05,VALID,997.579,VALID,0,VALID,92.6007,VALID,0,VALID,24.4428,VALID,18,VALID,1.44648,
2009-11-15, 02:34:05,VALID,997.569,VALID,0,VALID,92.6388,VALID,0,VALID,24.4214,VALID,11,VALID,1.22578,
2009-11-15, 02:35:05,VALID,997.557,VALID,0,VALID,92.6236,VALID,0,VALID,24.4019,VALID,11,VALID,1.4,
2009-11-15, 02:36:05,VALID,997.553,VALID,0,VALID,92.5473,VALID,0,VALID,24.4037,VALID,9,VALID,1.44531,
2009-11-15, 02:37:05,VALID,997.545,VALID,0,VALID,92.5473,VALID,0,VALID,24.4233,VALID,9,VALID,1.21602,
2009-11-15, 02:38:05,VALID,997.545,VALID,0,VALID,92.5168,VALID,0,VALID,24.3824,VALID,8,VALID,1.48086,
2009-11-15, 02:39:05,VALID,997.562,VALID,0,VALID,92.5244,VALID,0,VALID,24.4037,VALID,2,VALID,1.47617,
2009-11-15, 02:40:05,VALID,997.537,VALID,0,VALID,92.4786,VALID,0,VALID,24.4037,VALID,6,VALID,1.31914,
2009-11-15, 02:41:05,VALID,997.558,VALID,0,VALID,92.4863,VALID,0,VALID,24.4037,VALID,355,VALID,1.43281,
2009-11-15, 02:42:05,VALID,997.584,VALID,0,VALID,92.5168,VALID,0,VALID,24.4037,VALID,354,VALID,0.914453,
2009-11-15, 02:43:05,VALID,997.576,VALID,0,VALID,92.5397,VALID,0,VALID,24.4233,VALID,343,VALID,0.888281,
2009-11-15, 02:44:05,VALID,997.564,VALID,0,VALID,92.5397,VALID,0,VALID,24.4233,VALID,346,VALID,1.39727,
2009-11-15, 02:45:05,VALID,997.553,VALID,0,VALID,92.6007,VALID,0,VALID,24.4428,VALID,332,VALID,0.953125,
2009-11-15, 02:46:05,VALID,997.54,VALID,0.5,VALID,92.6007,VALID,0,VALID,24.4233,VALID,338,VALID,0.909766,
2009-11-15, 02:47:05,VALID,997.502,VALID,0,VALID,92.6236,VALID,0,VALID,24.4037,VALID,340,VALID,1.1125,
2009-11-15, 02:48:05,VALID,997.496,VALID,0,VALID,92.6846,VALID,0,VALID,24.4037,VALID,345,VALID,0.998828,
2009-11-15, 02:49:05,VALID,997.498,VALID,0,VALID,92.7228,VALID,0,VALID,24.3842,VALID,1,VALID,1.34492,
2009-11-15, 02:50:05,VALID,997.501,VALID,0,VALID,92.7762,VALID,0,VALID,24.3842,VALID,355,VALID,0.962891,
2009-11-15, 02:51:05,VALID,997.451,VALID,0,VALID,92.7914,VALID,0,VALID,24.3842,VALID,347,VALID,1.0793,
2009-11-15, 02:52:05,VALID,997.437,VALID,0,VALID,92.8372,VALID,0,VALID,24.3842,VALID,3,VALID,1.55781,
2009-11-15, 02:53:05,VALID,997.462,VALID,0.5,VALID,92.8525,VALID,0,VALID,24.3452,VALID,10,VALID,1.54062,
2009-11-15, 02:54:05,VALID,997.447,VALID,0,VALID,92.8525,VALID,0,VALID,24.3257,VALID,4,VALID,1.28867,
2009-11-15, 02:55:05,VALID,997.446,VALID,0,VALID,92.6007,VALID,0,VALID,24.2671,VALID,5,VALID,1.67344,
2009-11-15, 02:56:05,VALID,997.417,VALID,0,VALID,92.3642,VALID,0,VALID,24.1891,VALID,7,VALID,1.71172,
2009-11-15, 02:57:05,VALID,997.435,VALID,0,VALID,91.9827,VALID,0,VALID,24.1092,VALID,24,VALID,1.53672,
2009-11-15, 02:58:05,VALID,997.413,VALID,0,VALID,91.8377,VALID,0,VALID,24.0701,VALID,5,VALID,1.82305,
2009-11-15, 02:59:05,VALID,997.391,VALID,0,VALID,90.9756,VALID,0,VALID,23.9744,VALID,20,VALID,2.13008,
2009-11-15, 03:00:05,VALID,997.393,VALID,0,VALID,90.6246,VALID,0,VALID,23.914,VALID,25,VALID,1.9418,
2009-11-15, 03:01:05,VALID,997.398,VALID,0.5,VALID,90.5483,VALID,0,VALID,23.8768,VALID,22,VALID,1.89922,
2009-11-15, 03:02:05,VALID,997.375,VALID,0,VALID,89.6709,VALID,0,VALID,23.7793,VALID,19,VALID,2.07383,
2009-11-15, 03:03:05,VALID,997.372,VALID,0,VALID,90.06,VALID,0.112286,VALID,23.7189,VALID,25,VALID,2.39766,
2009-11-15, 03:04:05,VALID,997.38,VALID,0,VALID,90.1592,VALID,0.112286,VALID,23.7012,VALID,24,VALID,1.99336,
2009-11-15, 03:05:05,VALID,997.318,VALID,0,VALID,90.3652,VALID,0,VALID,23.6019,VALID,20,VALID,1.78594,
2009-11-15, 03:06:04,VALID,997.333,VALID,0,VALID,90.7467,VALID,0,VALID,23.5433,VALID,15,VALID,1.75352,
2009-11-15, 03:07:04,VALID,997.304,VALID,0,VALID,91.0061,VALID,0.112286,VALID,23.5238,VALID,18,VALID,1.56914,
2009-11-15, 03:08:04,VALID,997.325,VALID,0,VALID,91.2884,VALID,0,VALID,23.5043,VALID,3,VALID,1.41055,
2009-11-15, 03:09:04,VALID,997.304,VALID,0.5,VALID,91.1206,VALID,0,VALID,23.4848,VALID,2,VALID,1.60234,
2009-11-15, 03:10:04,VALID,997.279,VALID,0,VALID,91.3037,VALID,0,VALID,23.4653,VALID,16,VALID,1.01406,
2009-11-15, 03:11:04,VALID,997.284,VALID,0,VALID,91.5173,VALID,0,VALID,23.4653,VALID,18,VALID,0.883594,
2009-11-15, 03:12:04,VALID,997.272,VALID,0,VALID,91.5936,VALID,0,VALID,23.4671,VALID,18,VALID,1.01953,
2009-11-15, 03:13:04,VALID,997.231,VALID,0,VALID,91.8072,VALID,0,VALID,23.4475,VALID,22,VALID,1.07734,
2009-11-15, 03:14:04,VALID,997.236,VALID,0,VALID,91.5402,VALID,0,VALID,23.4085,VALID,18,VALID,1.72266,
2009-11-15, 03:15:04,VALID,997.213,VALID,0,VALID,91.3952,VALID,0,VALID,23.389,VALID,9,VALID,1.4832,
2009-11-15, 03:16:04,VALID,997.195,VALID,0,VALID,91.3037,VALID,0,VALID,23.3695,VALID,16,VALID,1.44258,
2009-11-15, 03:17:04,VALID,997.154,VALID,0,VALID,91.3342,VALID,0,VALID,23.3695,VALID,11,VALID,1.14805,
2009-11-15, 03:18:04,VALID,997.142,VALID,0,VALID,91.2274,VALID,0,VALID,23.3305,VALID,12,VALID,1.19141,
2009-11-15, 03:19:04,VALID,997.092,VALID,0.5,VALID,91.1511,VALID,0,VALID,23.311,VALID,1,VALID,1.00859,
2009-11-15, 03:20:04,VALID,997.107,VALID,0,VALID,91.0595,VALID,0,VALID,23.311,VALID,356,VALID,1.39258,
2009-11-15, 03:21:04,VALID,997.076,VALID,0,VALID,90.6246,VALID,0,VALID,23.2915,VALID,346,VALID,1.475,
2009-11-15, 03:22:04,VALID,997.059,VALID,0,VALID,90.6323,VALID,0,VALID,23.2719,VALID,2,VALID,1.21328,
2009-11-15, 03:23:04,VALID,997.065,VALID,0,VALID,90.7772,VALID,0,VALID,23.2719,VALID,359,VALID,1.14961,
2009-11-15, 03:24:04,VALID,997.025,VALID,0,VALID,90.6551,VALID,0,VALID,23.2524,VALID,351,VALID,1.22891,
2009-11-15, 03:25:04,VALID,997.023,VALID,0,VALID,90.7238,VALID,0,VALID,23.2329,VALID,3,VALID,1.31836,
2009-11-15, 03:26:04,VALID,997.03,VALID,0,VALID,90.762,VALID,0,VALID,23.2312,VALID,6,VALID,0.830469,
2009-11-15, 03:27:04,VALID,997.013,VALID,0,VALID,90.968,VALID,0,VALID,23.2329,VALID,8,VALID,0.668359,
2009-11-15, 03:28:04,VALID,997.032,VALID,0,VALID,91.0366,VALID,0,VALID,23.1939,VALID,15,VALID,0.651563,
2009-11-15, 03:29:04,VALID,997.015,VALID,0,VALID,91.2731,VALID,0,VALID,23.1939,VALID,15,VALID,0.394141,
2009-11-15, 03:30:04,VALID,997.017,VALID,0,VALID,91.3876,VALID,0,VALID,23.1549,VALID,15,VALID,0.25,
2009-11-15, 03:31:04,VALID,997.032,VALID,0,VALID,91.6317,VALID,0,VALID,23.1549,VALID,15,VALID,0.00195313,
2009-11-15, 03:32:04,VALID,997.058,VALID,0,VALID,91.7996,VALID,0,VALID,23.1354,VALID,15,VALID,0.20625,
2009-11-15, 03:33:04,VALID,997.017,VALID,0.5,VALID,91.792,VALID,0,VALID,23.1354,VALID,15,VALID,0.242578,
2009-11-15, 03:34:04,VALID,997.018,VALID,0,VALID,91.853,VALID,0,VALID,23.1336,VALID,15,VALID,0.328906,
2009-11-15, 03:35:04,VALID,997.013,VALID,0,VALID,91.9217,VALID,0,VALID,23.1549,VALID,15,VALID,0.287109,
2009-11-15, 03:36:04,VALID,997.002,VALID,0,VALID,91.8759,VALID,0,VALID,23.1744,VALID,15,VALID,0.283984,
2009-11-15, 03:37:04,VALID,997.011,VALID,0,VALID,91.7538,VALID,0,VALID,23.1939,VALID,15,VALID,0.316016,
2009-11-15, 03:38:04,VALID,996.99,VALID,0,VALID,91.6851,VALID,0,VALID,23.2152,VALID,15,VALID,0.345313,
2009-11-15, 03:39:04,VALID,996.99,VALID,0,VALID,91.8377,VALID,0,VALID,23.2524,VALID,14,VALID,0.382813,
2009-11-15, 03:40:04,VALID,996.98,VALID,0,VALID,91.7538,VALID,0,VALID,23.2329,VALID,208,VALID,0.569922,
2009-11-15, 03:41:04,VALID,996.991,VALID,0,VALID,91.8911,VALID,0,VALID,23.2719,VALID,208,VALID,0.308984,
2009-11-15, 03:42:04,VALID,996.974,VALID,0,VALID,91.9674,VALID,0,VALID,23.2915,VALID,208,VALID,0.147656,
2009-11-15, 03:43:04,VALID,996.971,VALID,0,VALID,92.0666,VALID,0,VALID,23.2915,VALID,208,VALID,0,
2009-11-15, 03:44:04,VALID,996.988,VALID,0,VALID,92.0132,VALID,0,VALID,23.2719,VALID,133,VALID,0.518359,
2009-11-15, 03:45:04,VALID,996.987,VALID,0.5,VALID,92.1048,VALID,0,VALID,23.2932,VALID,132,VALID,0.951953,
2009-11-15, 03:46:04,VALID,996.979,VALID,0,VALID,92.1277,VALID,0,VALID,23.2719,VALID,129,VALID,0.910156,
2009-11-15, 03:47:04,VALID,996.958,VALID,0,VALID,92.0895,VALID,0,VALID,23.2719,VALID,138,VALID,0.810156,
2009-11-15, 03:48:04,VALID,996.934,VALID,0,VALID,92.1124,VALID,0,VALID,23.2719,VALID,135,VALID,0.843359,